Weather in Catanduva

Brazil     21°08′00″S   49°00′53″W
temp.,
°C
wind,
m/s
gust,
m/s
humid.,
%
clouds,
%
prec.,
mm/h
press.,
hPa
HPBL,
m
5 december, sun
sun500:00+23ese36655 0.0 1013120
03:00+22ese38745 0.0 1013204
06:00+21e377856 0.0 1015176
09:00+28ne465711 0.0 10151027
12:00+31nne434663 0.0 10132478
15:00+30ssw224784 0.0 1011783
18:00+26ssw236182 0.1 101044
21:00+23n33698 0.1 101249
6 december, mon
mon600:00+23ne48695 0.0 1011136
03:00+22nne24775 0.0 101176
06:00+19se24891 2.0 101399
09:00+26ne22655 2.2 1013650
12:00+31w23450 0.0 10111706
15:00+32w34381 0.0 10072596
18:00+23sse6117999 0.4 1010358
21:00+21ese488529 1.8 1011238
7 december, tue
tue700:00+19e3118819 0.0 1012377
03:00+18se248776 0.0 101098
06:00+19sse48930 0.0 1011333
09:00+23se56680 0.0 1012703
12:00+28se44490 0.0 10111528
15:00+30sse654293 0.0 10082502
18:00+24se811636 0.1 1009880
21:00+20se815680 0.1 1012787
8 december, wed
wed800:00+18se815770 0.0 1012727
03:00+18se612770 0.0 1011616
06:00+17se512820 0.0 1012460
09:00+22ese67641 0.0 1013912
12:00+27ese334916 0.0 10111602
15:00+29s244122 0.0 10082352
18:00+25s376399 0.7 1009243
21:00+20se413714 1.0 1011489
9 december, thu
thu900:00+19se410745 0.0 1012399
03:00+17se411800 0.0 1011364
06:00+15se310870 0.0 1012303
09:00+22se56630 0.0 1012686
12:00+27sse44460 0.0 10111485
15:00+30s44340 0.0 10082133
18:00+26ssw47500 0.0 1008169
21:00+22ese410490 0.0 1010161